Weather in Davydovka

Russia / Lipetsk Oblast     52°45′42″N   39°35′16″E
temp.,
°C
wind,
m/s
gust,
m/s
humid.,
%
clouds,
%
prec.,
mm/h
press.,
hPa
HPBL,
m
20 june, sun
sun2000:00+16se22810 0.0 102411
03:00+15ese22850 0.0 102512
06:00+16ese23830 0.0 102499
09:00+22ese34660 0.0 1024550
12:00+25ese45520 0.0 10231050
15:00+26se4549100 0.0 10221236
18:00+25ese356598 0.0 1021223
21:00+20e3379100 0.0 102225
21 june, mon
mon2100:00+18e3384100 0.0 102139
03:00+17e3389100 0.0 102146
06:00+18e368570 0.0 1022152
09:00+24ese466359 0.0 1022479
12:00+26ese5759100 0.0 1021708
15:00+28se5653100 0.0 10201195
18:00+26ese377090 0.0 1020219
21:00+22ese34855 0.0 102149
22 june, tue
tue2200:00+20ese34904 0.0 102156
03:00+18e34885 0.0 102157
06:00+20ese36840 0.0 1022157
09:00+25ese46640 0.0 1021482
12:00+29ese4549100 0.0 10211005
15:00+30e4446100 0.0 10211132
18:00+28e46619 0.0 1020232
21:00+23e23743 0.0 102120
23 june, wed
wed2300:00+20e33785 0.0 102123
03:00+19ene338313 0.0 102141
06:00+20ene36845 0.0 1021139
09:00+26e466615 0.0 1020440
12:00+29ese4551100 0.0 1020930
15:00+30ese444661 0.0 10201287
18:00+29ese3462100 0.0 1020183
21:00+24e227136 0.0 102013
24 june, thu
thu2400:00+22e2281100 0.0 102013
03:00+21ene228748 0.0 102111
06:00+22e228421 0.0 102174
09:00+27se226260 0.0 1021458
12:00+30se234832 0.0 10201328
15:00+32sse22445 0.0 10201973
18:00+31se235612 0.0 1020219
21:00+24se227265 0.0 102016